#timestamp,LO_Frequency,Hit,StdDev 
1654423215.7,286046999.2,N
1654423235.5,286046996.6,Y
1654423255.4,286047000.8,P
1654423275.2,286046998.8,N
1654423295.1,286047000.4,N
1654423296.0,286047000.4,N
1654423315.8,286047002.4,N
1654423335.6,286047002.3,N
1654423355.5,286047002.6,N
1654423375.3,286047002.1,N
1654423395.1,286047002.1,N
1654423415.9,286046999.9,N
1654423435.7,286047000.7,N
1654423455.6,286047000.7,N
1654423475.4,286046998.6,N
1654423495.2,286047000.7,N
1654423515.1,286046998.6,N
1654423516.0,286046998.6,N
1654423535.8,286047000.7,N
1654423555.7,286046998.6,N
1654423575.5,286046998.4,N
1654423595.3,286046998.6,N
1654423615.2,286046999.0,N
1654423635.0,286046998.6,N
1654423635.9,286046998.6,N
1654423655.7,286047000.9,N
1654423675.6,286047000.2,N
1654423695.4,286047002.4,N
1654423715.3,286047002.5,N
1654423735.1,286047002.5,N
1654423736.0,286047002.5,N
1654423755.8,286047001.6,N
1654423775.7,286047001.3,N
1654423795.5,286047000.1,N
1654423815.3,286046999.7,N
1654423835.2,286047002.5,N
1654423855.0,286046999.7,N
1654423855.9,286046999.7,N
1654423875.8,286047002.2,N
1654423895.6,286047002.8,N
1654423915.4,286047002.6,N
1654423935.3,286047001.8,N
1654423955.1,286047004.3,N
1654423975.9,286047003.5,N
1654423995.7,286047003.3,N
1654424015.5,286047003.2,N
1654424035.4,286047002.9,N
1654424055.2,286047003.6,N
1654424075.0,286047004.2,N
1654424075.9,286047004.2,N
1654424095.8,286047003.6,N
1654424115.6,286047003.4,N
1654424135.5,286047003.7,N
1654424155.3,286047006.0,Y
1654424175.1,286047002.5,P
1654424195.9,286047000.2,N
1654424215.7,286047000.8,N
1654424235.5,286046999.9,N
1654424255.4,286046998.1,N
1654424275.2,286047001.2,N
1654424295.1,286046999.1,N
1654424296.0,286046999.1,N
1654424315.8,286046998.2,N
1654424335.6,286046998.3,N
1654424355.5,286047000.8,N
1654424375.3,286047000.6,N
1654424395.1,286046998.2,N
1654424415.9,286046998.7,N
1654424435.7,286046999.5,N
1654424455.6,286046998.1,N
1654424475.4,286047000.4,N
1654424495.2,286047000.3,N
1654424515.1,286047000.5,N
1654424516.0,286047000.5,N
1654424535.8,286047000.5,N
1654424555.7,286047000.8,N
1654424575.5,286047000.4,N
1654424595.3,286047000.0,N
1654424615.2,286047000.3,N
1654424635.9,286047002.6,N
1654424655.7,286047002.7,N
1654424675.6,286047001.3,N
1654424695.4,286047001.9,N
1654424715.3,286047001.9,N
1654424735.1,286047001.6,N
1654424736.0,286047001.6,N
1654424755.8,286047001.7,N
1654424775.7,286047002.7,N
1654424795.5,286047002.5,N
1654424815.3,286046999.7,N
1654424835.2,286047002.3,N
1654424855.0,286047002.1,N
1654424855.9,286047002.1,N
1654424875.8,286047002.3,N
1654424895.6,286047002.2,N
1654424915.4,286047000.1,N
1654424935.3,286047000.1,N
1654424955.1,286047002.8,N
1654424975.8,286047002.2,N
1654424995.7,286047002.6,N
1654425015.5,286047002.3,N
1654425035.4,286047001.6,N
1654425055.2,286047004.4,Y
1654425075.0,286047002.2,P
1654425075.9,286047002.2,P
1654425095.8,286047002.6,P
1654425115.6,286047002.3,Y
1654425135.5,286046998.8,P
1654425155.3,286046999.3,N
1654425175.1,286046999.1,N
1654425195.9,286046996.5,N
1654425215.7,286046997.1,N
1654425235.5,286046997.0,N
1654425255.4,286046996.8,N
1654425275.2,286046997.5,N
1654425295.1,286046997.7,N
1654425296.0,286046997.7,N
1654425315.8,286046999.1,N
1654425335.6,286046998.8,N
1654425355.5,286046999.0,N
1654425375.3,286046998.5,N
1654425395.1,286046998.6,N
1654425415.9,286046998.9,N
1654425435.7,286046999.0,N
1654425455.6,286046999.3,N
1654425475.4,286046996.5,N
1654425495.3,286046998.4,N
1654425515.1,286046998.9,N
1654425516.0,286046998.9,N
1654425535.8,286046998.7,N
1654425555.7,286046998.7,N
1654425575.5,286046998.1,N
1654425595.3,286047001.1,N
1654425615.2,286046997.0,N
1654425635.0,286046998.9,N
1654425635.9,286046998.9,N
1654425655.8,286046998.2,N
1654425675.6,286046998.2,N
1654425695.4,286046998.5,N
1654425715.3,286046999.5,N
1654425735.1,286046998.8,N
1654425755.9,286046998.7,N
1654425775.7,286047000.9,N
1654425795.5,286047001.1,N
1654425815.4,286047000.6,N
1654425835.2,286047000.4,N
1654425855.1,286047000.4,N
1654425856.0,286047000.4,N
1654425875.8,286047000.1,N
1654425895.6,286047000.6,N
1654425915.5,286047000.8,N
1654425935.3,286046998.9,N
1654425955.2,286046998.7,N
1654425975.0,286046998.7,N
1654425975.9,286046998.7,N
1654425995.7,286046998.1,N
1654426015.6,286046998.2,N
1654426035.4,286047000.4,N
1654426055.3,286046998.1,N
1654426075.1,286047000.3,N
1654426095.8,286046998.5,N
1654426115.7,286046998.8,N
1654426135.5,286046998.1,N
1654426155.4,286047000.3,N
1654426175.2,286047000.3,N
1654426195.0,286047001.0,N
1654426195.9,286047001.0,N
1654426215.8,286046998.6,N
1654426235.6,286047000.6,N
1654426255.5,286047000.8,N
1654426275.3,286047000.9,N
1654426295.1,286046998.5,N
1654426315.9,286047000.0,N
1654426335.7,286047000.4,N
1654426355.5,286047000.1,N
1654426375.4,286047000.4,N
1654426395.2,286047000.4,N
1654426415.1,286047000.7,N
1654426416.0,286047000.7,N
1654426435.8,286047000.4,N
1654426455.6,286047000.7,N
1654426475.5,286046998.8,N
1654426495.3,286046998.6,N
1654426515.2,286046998.7,N
1654426535.9,286046998.7,N
1654426555.7,286047000.4,N
1654426575.6,286047002.8,N
1654426595.4,286047000.6,N
1654426615.3,286047000.4,N
1654426635.1,286046999.9,N
1654426636.0,286046999.9,N
1654426655.8,286046999.8,N
1654426675.7,286046998.2,N
1654426695.5,286046998.8,N
1654426715.3,286046998.4,N
1654426735.2,286046998.1,N
1654426755.0,286047000.6,N
1654426755.9,286047000.6,N
1654426775.8,286047000.6,N
1654426795.6,286047001.0,N
